HULIANWANG DIGUI 13J

Last updated on Wed Dec 10 2025 00:02:06 GMT+0000 (Coordinated Universal Time)

1 66420U 25258J 25342.84521346 .00000652 00000+0 37259-3 0 9990 2 66420 50.0024 278.3460 0003773 347.1433 12.9382 14.20810839 4090
UTC large
Height (km)
Speed (km/s)
/
Latitude / Longitude
Inclination (degrees)
Orbital Period (minutes)
Azimuth
Elevation
Range (km)
Doppler Factor

Next 0 passes for location: London (51.5072 / 0.1276)

Sorry there are no passes over London.